Location: Bremen
(53.0793°N, 8.8017°E)
Time: 20:53:49
(UTC+01:00)

Transit 2A - Pass Details

Date: 06 December 2022
Orbit: 593 x 963 km, 66.7° (Epoch: 05 February)

Event Time Altitude Azimuth Distance (km) Brightness Sun altitude
Rises 07:13:42 0° 179° (S) 2,833 9.3 -9.6°
Reaches altitude 10° 07:16:14 10° 165° (SSE) 1,957 8.7 -9.3°
Maximum altitude 07:19:42 23° 112° (ESE) 1,335 8.4 -8.8°
Drops below altitude 10° 07:23:21 10° 60° (ENE) 2,080 8.7 -8.3°
Sets 07:26:07 0° 46° (NE) 3,058 9.4 -7.9°
